LINCON Weather Reports


Display with metric or nautical units.
time (UTC)temp
F
wind
direction
speed
MPH
gust
MPH
rain 1hr
in
rain 24hr
in
rain mn
in
humidity
%
barometer
mb
20260510233516 67 348 10.0 16.0 0.00 0.00 0.00 66 1017.5
20260510233016 67 345 8.0 16.0 0.00 0.00 0.00 66 1017.5
20260510232516 67 337 11.0 16.0 0.00 0.00 0.00 65 1017.5
20260510232016 68 348 8.0 16.0 0.00 0.00 0.00 64 1017.5
20260510231516 68 354 6.0 16.0 0.00 0.00 0.00 65 1017.5
20260510231016 68 338 8.0 10.0 0.00 0.00 0.00 64 1017.4
20260510230517 68 331 7.0 10.0 0.00 0.00 0.00 63 1017.5
20260510230016 68 323 7.0 12.0 0.00 0.00 0.00 64 1017.6
20260510225516 68 344 7.0 12.0 0.00 0.00 0.00 64 1017.6
20260510225016 68 354 7.0 12.0 0.00 0.00 0.00 64 1017.6
20260510224516 68 345 6.0 14.0 0.00 0.00 0.00 64 1017.6
20260510224016 68 348 8.0 14.0 0.00 0.00 0.00 63 1017.6
20260510223516 68 344 8.0 14.0 0.00 0.00 0.00 62 1017.7
20260510223016 68 344 11.0 16.0 0.00 0.00 0.00 62 1017.7
20260510222516 68 336 6.0 16.0 0.00 0.00 0.00 63 1017.7
20260510222016 68 4 9.0 16.0 0.00 0.00 0.00 63 1017.8
20260510221520 69 351 9.0 16.0 0.00 0.00 0.00 62 1017.8
20260510221016 69 1 7.0 16.0 0.00 0.00 0.00 62 1017.9
20260510220516 69 354 10.0 16.0 0.00 0.00 0.00 61 1017.9
20260510220016 69 348 12.0 14.0 0.00 0.00 0.00 60 1017.9
20260510215516 70 347 11.0 14.0 0.00 0.00 0.00 59 1017.9
20260510215016 70 340 8.0 14.0 0.00 0.00 0.00 59 1017.9
20260510214516 71 341 10.0 14.0 0.00 0.00 0.00 57 1017.9
20260510214016 71 352 11.0 14.0 0.00 0.00 0.00 56 1017.8
20260510213516 71 355 7.0 12.0 0.00 0.00 0.00 57 1017.8
20260510213016 71 347 9.0 13.0 0.00 0.00 0.00 56 1017.8
20260510212516 71 348 4.0 13.0 0.00 0.00 0.00 58 1017.7
20260510212016 71 343 10.0 13.0 0.00 0.00 0.00 56 1017.7
20260510211516 71 341 10.0 14.0 0.00 0.00 0.00 56 1017.7
20260510211016 71 345 8.0 14.0 0.00 0.00 0.00 56 1017.7
20260510210516 72 347 10.0 14.0 0.00 0.00 0.00 55 1017.7
20260510210016 72 352 9.0 14.0 0.00 0.00 0.00 57 1017.8
20260510205517 71 338 7.0 14.0 0.00 0.00 0.00 58 1017.9
20260510205016 71 334 8.0 14.0 0.00 0.00 0.00 58 1018.0
20260510204516 71 0 8.0 14.0 0.00 0.00 0.00 59 1018.0
20260510204016 71 333 7.0 14.0 0.00 0.00 0.00 58 1018.0
20260510203517 71 357 8.0 14.0 0.00 0.00 0.00 59 1017.9
20260510203016 71 5 9.0 14.0 0.00 0.00 0.00 58 1018.0
20260510202516 71 357 6.0 15.0 0.00 0.00 0.00 59 1017.8
20260510202016 71 348 8.0 15.0 0.00 0.00 0.00 58 1017.7
20260510201516 71 357 9.0 15.0 0.00 0.00 0.00 57 1017.6
20260510201016 71 351 8.0 15.0 0.00 0.00 0.00 57 1017.7
20260510200516 72 341 6.0 11.0 0.00 0.00 0.00 57 1017.7
20260510200016 72 344 7.0 11.0 0.00 0.00 0.00 57 1017.8
20260510195516 72 338 7.0 10.0 0.00 0.00 0.00 58 1017.9
20260510195016 72 333 7.0 10.0 0.00 0.00 0.00 58 1017.9
20260510194516 72 323 6.0 10.0 0.00 0.00 0.00 58 1017.8
20260510194017 72 327 7.0 10.0 0.00 0.00 0.00 57 1017.7
20260510193517 71 331 6.0 10.0 0.00 0.00 0.00 57 1017.5
20260510193016 71 338 6.0 11.0 0.00 0.00 0.00 57 1017.4
20260510192516 71 336 6.0 11.0 0.00 0.00 0.00 56 1017.4
20260510192016 71 331 6.0 11.0 0.00 0.00 0.00 57 1017.4
20260510191016 72 345 5.0 9.0 0.00 0.00 0.00 57 1017.2
20260510190516 72 340 6.0 10.0 0.00 0.00 0.00 56 1017.3
20260510190016 71 326 5.0 10.0 0.00 0.00 0.00 57 1017.2
20260510185517 71 354 4.0 10.0 0.00 0.00 0.00 58 1017.1
20260510185016 71 330 3.0 9.0 0.00 0.00 0.00 60 1017.1
20260510184016 70 334 6.0 11.0 0.00 0.00 0.00 63 1016.9
20260510183516 69 347 1.0 11.0 0.00 0.00 0.00 66 1016.8
20260510183016 68 340 6.0 11.0 0.00 0.00 0.00 66 1016.7
20260510182516 67 355 6.0 11.0 0.00 0.00 0.00 68 1016.7
20260510182016 66 341 8.0 11.0 0.00 0.00 0.00 72 1017.0
20260510181516 64 343 5.0 9.0 0.00 0.00 0.00 75 1017.0
20260510181016 62 344 4.0 8.0 0.00 0.00 0.00 77 1017.0
20260510180516 61 0 1.0 8.0 0.00 0.00 0.00 77 1016.8
20260510180016 61 337 0.0 12.0 0.00 0.00 0.00 75 1017.0
20260510175516 61 338 6.0 12.0 0.00 0.00 0.00 76 1017.0
20260510175017 61 333 4.0 12.0 0.00 0.00 0.00 75 1017.0
20260510174518 61 343 6.0 13.0 0.00 0.00 0.00 75 1016.9
20260510174016 61 350 8.0 13.0 0.00 0.00 0.00 74 1017.1
20260510173516 61 352 7.0 13.0 0.00 0.00 0.00 74 1017.0
20260510173016 61 338 7.0 13.0 0.00 0.00 0.00 73 1016.7
20260510172516 62 348 7.0 13.0 0.00 0.00 0.00 73 1016.7
20260510172016 62 348 6.0 13.0 0.00 0.00 0.00 72 1016.4
20260510171516 62 338 6.0 13.0 0.00 0.00 0.00 71 1016.5
20260510171016 63 338 8.0 13.0 0.00 0.00 0.00 70 1016.7
20260510170517 64 347 9.0 12.0 0.00 0.00 0.00 68 1016.7
20260510170016 64 350 7.0 12.0 0.00 0.00 0.00 68 1016.5
20260510165516 65 355 9.0 12.0 0.00 0.00 0.00 68 1016.5
20260510165016 65 345 8.0 12.0 0.00 0.00 0.00 68 1016.4
20260510164516 66 357 8.0 12.0 0.00 0.00 0.00 69 1016.3
20260510164016 65 345 8.0 12.0 0.00 0.00 0.00 70 1016.4
20260510163516 65 344 8.0 12.0 0.00 0.00 0.00 70 1016.5
20260510163016 64 355 5.0 11.0 0.00 0.00 0.00 77 1016.5
20260510162516 62 333 7.0 11.0 0.00 0.00 0.00 76 1016.4
20260510162016 62 338 6.0 9.0 0.00 0.00 0.00 77 1016.4
20260510161516 61 352 1.0 11.0 0.00 0.00 0.00 77 1016.1
20260510161016 61 347 6.0 11.0 0.00 0.00 0.00 78 1016.1
20260510160516 61 338 2.0 11.0 0.00 0.00 0.00 78 1016.2
20260510160016 61 341 0.0 13.0 0.00 0.00 0.00 78 1016.1
20260510155516 61 337 6.0 13.0 0.00 0.00 0.00 78 1016.3
20260510155016 61 340 7.0 13.0 0.00 0.00 0.00 77 1016.1
20260510154516 61 343 8.0 12.0 0.00 0.00 0.00 77 1016.0
20260510154016 61 351 6.0 12.0 0.00 0.00 0.00 79 1015.9
20260510153516 61 348 5.0 12.0 0.00 0.00 0.00 79 1015.9
20260510153016 60 354 8.0 11.0 0.00 0.00 0.00 79 1015.9
20260510152516 60 337 6.0 10.0 0.00 0.00 0.00 81 1015.9
20260510152016 60 343 6.0 11.0 0.00 0.00 0.00 81 1015.8
20260510151516 59 345 5.0 11.0 0.00 0.00 0.00 82 1015.7
20260510151016 59 341 7.0 11.0 0.00 0.00 0.00 82 1015.6
20260510150516 59 341 7.0 8.0 0.00 0.00 0.00 84 1015.4
20260510150016 58 341 0.0 10.0 0.00 0.00 0.00 86 1015.5
20260510145516 58 341 6.0 10.0 0.00 0.00 0.00 86 1015.6
20260510145016 57 345 1.0 10.0 0.00 0.00 0.00 86 1015.5
20260510144516 57 330 3.0 8.0 0.00 0.00 0.00 86 1015.5
20260510144016 57 341 2.0 7.0 0.00 0.00 0.00 86 1015.4
20260510143516 57 343 4.0 8.0 0.00 0.00 0.00 87 1015.5
20260510143016 56 338 3.0 8.0 0.00 0.00 0.00 87 1015.4
20260510142516 56 344 0.0 8.0 0.00 0.00 0.00 87 1015.3
20260510142015 56 344 6.0 10.0 0.00 0.00 0.00 87 1015.3
20260510141515 56 348 4.0 10.0 0.00 0.00 0.00 86 1015.2
20260510141016 56 352 6.0 10.0 0.00 0.00 0.00 86 1015.2
20260510140515 56 337 8.0 9.0 0.00 0.00 0.00 86 1015.3
20260510140016 56 348 4.0 9.0 0.00 0.00 0.00 86 1015.1
20260510135515 55 348 0.0 9.0 0.00 0.00 0.00 86 1014.9
20260510135206 55 340 5.0 8.0 0.00 0.00 0.00 86 1014.9
20260510135203 55 350 0.0 10.0 0.00 0.00 0.00 86 1015.1
20260510135016 55 340 0.0 9.0 0.00 0.00 0.00 86 1014.8
20260510134516 55 341 5.0 9.0 0.00 0.00 0.00 87 1014.8
20260510134016 55 340 5.0 8.0 0.00 0.00 0.00 86 1014.9
20260510133516 55 327 0.0 7.0 0.00 0.00 0.00 86 1015.1
20260510133017 55 350 0.0 10.0 0.00 0.00 0.00 86 1015.1
20260510132516 55 336 5.0 10.0 0.00 0.00 0.00 85 1014.7
20260510132016 55 351 6.0 10.0 0.00 0.00 0.00 85 1014.8
20260510131516 55 336 0.0 9.0 0.00 0.00 0.00 85 1014.7
20260510131016 55 345 0.0 9.0 0.00 0.00 0.00 85 1014.8
20260510130515 55 341 1.0 9.0 0.00 0.00 0.00 85 1014.7
20260510130016 55 343 6.0 9.0 0.00 0.00 0.00 84 1014.8
20260510125516 55 350 6.0 7.0 0.00 0.00 0.00 84 1014.7
20260510125016 55 348 3.0 6.0 0.00 0.00 0.00 84 1014.7
20260510124517 55 0 2.0 5.0 0.00 0.00 0.00 84 1015.0
20260510124016 55 340 0.0 5.0 0.00 0.00 0.00 84 1014.6
20260510123516 56 345 3.0 10.0 0.00 0.00 0.00 84 1014.7
20260510123016 56 0 0.0 10.0 0.00 0.00 0.00 84 1014.6
20260510122516 56 337 0.0 10.0 0.00 0.00 0.00 84 1014.2
20260510122016 56 348 7.0 8.0 0.00 0.00 0.00 84 1014.4
20260510121515 56 333 4.0 10.0 0.00 0.00 0.00 84 1014.7
20260510121016 56 337 0.0 10.0 0.00 0.00 0.00 84 1014.7
20260510120516 56 338 2.0 10.0 0.00 0.00 0.00 84 1014.7
20260510120016 56 350 3.0 9.0 0.00 0.00 0.00 84 1014.7
20260510115516 56 348 5.0 9.0 0.00 0.00 0.00 85 1014.7
20260510115016 56 347 0.0 7.0 0.00 0.00 0.00 85 1014.9
20260510114516 56 351 0.0 13.0 0.00 0.00 0.00 85 1015.0
20260510114016 56 334 0.0 13.0 0.00 0.00 0.00 86 1014.9
20260510113516 56 338 0.0 13.0 0.00 0.00 0.00 86 1014.7
20260510113015 56 348 4.0 11.0 0.00 0.00 0.00 87 1014.8
20260510112516 56 357 8.0 10.0 0.00 0.00 0.00 87 1014.8
20260510112016 56 338 2.0 9.0 0.00 0.00 0.00 88 1014.7
20260510111515 56 329 1.0 9.0 0.00 0.00 0.00 88 1014.8
20260510111015 56 344 5.0 8.0 0.00 0.00 0.00 88 1014.8
20260510110516 56 345 4.0 8.0 0.00 0.00 0.00 88 1015.0
20260510110016 56 327 3.0 10.0 0.00 0.00 0.00 89 1015.0
20260510105516 56 345 0.0 10.0 0.00 0.00 0.00 89 1015.0
20260510105016 56 351 5.0 10.0 0.00 0.00 0.00 89 1014.9
20260510104516 56 330 6.0 9.0 0.00 0.00 0.00 89 1015.1
20260510104016 56 337 5.0 9.0 0.00 0.00 0.00 89 1014.9
20260510103516 56 345 4.0 9.0 0.00 0.00 0.00 89 1014.9
20260510103017 56 344 7.0 9.0 0.00 0.00 0.00 89 1015.0
20260510102516 56 347 6.0 9.0 0.00 0.00 0.00 89 1015.0
20260510102016 56 350 6.0 10.0 0.00 0.00 0.00 88 1015.2
20260510101515 56 337 7.0 10.0 0.00 0.00 0.00 88 1015.1
20260510101015 57 341 3.0 10.0 0.00 0.00 0.00 88 1014.9
20260510100515 56 354 0.0 3.0 0.00 0.00 0.00 88 1014.4
20260510100015 56 0 0.0 10.0 0.00 0.00 0.00 88 1014.5
20260510095516 56 357 0.0 10.0 0.00 0.00 0.00 88 1014.7
20260510095016 56 350 1.0 10.0 0.00 0.00 0.00 87 1014.8
20260510094515 56 345 5.0 11.0 0.00 0.00 0.00 87 1014.8
20260510094015 56 354 7.0 11.0 0.00 0.00 0.00 87 1014.7
20260510093516 56 354 0.0 11.0 0.00 0.00 0.00 87 1014.6
20260510093015 56 336 8.0 14.0 0.00 0.00 0.00 87 1014.6
20260510092515 56 317 4.0 14.0 0.00 0.00 0.00 87 1014.6
20260510092018 56 340 0.0 14.0 0.00 0.00 0.00 87 1014.6
20260510091515 56 345 0.0 15.0 0.00 0.00 0.00 87 1014.7
20260510091015 56 337 2.0 15.0 0.00 0.00 0.00 87 1014.6
20260510090516 56 345 2.0 15.0 0.00 0.00 0.00 87 1014.6
20260510090016 56 350 0.0 10.0 0.00 0.00 0.00 88 1014.7
20260510085516 56 350 1.0 10.0 0.00 0.00 0.00 88 1014.6
20260510085016 56 329 5.0 10.0 0.00 0.00 0.00 88 1014.5
20260510084516 56 338 6.0 12.0 0.00 0.00 0.00 88 1014.4
20260510084015 56 340 4.0 12.0 0.00 0.00 0.00 88 1014.4
20260510083516 56 338 0.0 12.0 0.00 0.00 0.00 88 1014.4
20260510083015 56 331 0.0 14.0 0.00 0.00 0.00 88 1014.5
20260510082516 56 350 6.0 14.0 0.00 0.00 0.00 88 1014.6
20260510082016 57 347 6.0 14.0 0.00 0.00 0.00 88 1014.7
20260510081515 56 341 7.0 11.0 0.00 0.00 0.00 88 1014.7
20260510081015 56 338 0.0 11.0 0.00 0.00 0.00 88 1014.7
20260510080516 56 345 5.0 16.0 0.00 0.00 0.00 88 1014.5
20260510080018 56 348 4.0 16.0 0.00 0.00 0.00 88 1014.6
20260510075516 56 337 1.0 16.0 0.00 0.00 0.00 88 1014.5
20260510075015 56 345 10.0 15.0 0.00 0.00 0.00 88 1014.5
20260510074515 56 345 7.0 15.0 0.00 0.00 0.00 88 1014.4
20260510074016 56 345 7.0 15.0 0.00 0.00 0.00 88 1014.3
20260510073515 56 324 9.0 15.0 0.00 0.00 0.00 88 1014.3
20260510073018 56 350 7.0 13.0 0.00 0.00 0.00 88 1014.3
20260510072516 56 341 8.0 12.0 0.00 0.00 0.00 88 1014.2
20260510072015 56 341 8.0 12.0 0.00 0.00 0.00 88 1014.2
20260510071516 56 337 0.0 16.0 0.00 0.00 0.00 88 1014.2
20260510071016 56 345 2.0 16.0 0.00 0.00 0.00 88 1014.3
20260510070516 56 341 10.0 16.0 0.00 0.00 0.00 88 1014.2
20260510070017 56 345 10.0 17.0 0.00 0.00 0.00 88 1014.2
20260510065515 56 345 6.0 17.0 0.00 0.00 0.00 88 1014.2
20260510065017 56 337 7.0 17.0 0.00 0.00 0.00 88 1014.2
20260510064517 56 338 7.0 15.0 0.00 0.00 0.00 89 1014.2
20260510064016 56 351 4.0 15.0 0.00 0.00 0.00 89 1014.2
20260510063515 56 344 10.0 15.0 0.00 0.00 0.00 89 1014.1
20260510063016 56 337 7.0 13.0 0.00 0.00 0.00 89 1014.1
20260510062515 56 355 8.0 16.0 0.00 0.00 0.00 89 1014.2
20260510062016 56 343 10.0 16.0 0.00 0.00 0.00 89 1014.2
20260510061016 57 338 7.0 14.0 0.00 0.00 0.00 89 1014.2
20260510060515 57 345 7.0 12.0 0.00 0.00 0.00 90 1014.2
20260510060016 57 343 6.0 13.0 0.00 0.00 0.00 90 1014.1
20260510055516 57 348 5.0 13.0 0.00 0.00 0.00 90 1014.2
20260510055016 57 336 4.0 13.0 0.00 0.00 0.00 90 1014.3
20260510054516 57 336 7.0 16.0 0.00 0.00 0.00 90 1014.3
20260510054016 57 354 7.0 16.0 0.00 0.00 0.00 90 1014.3
20260510053515 57 345 10.0 16.0 0.00 0.00 0.00 90 1014.3
20260510053016 57 333 11.0 20.0 0.00 0.00 0.00 90 1014.2
20260510052516 57 343 7.0 20.0 0.00 0.00 0.00 90 1014.3
20260510052016 57 324 10.0 20.0 0.00 0.00 0.00 90 1014.3
20260510051515 57 337 6.0 17.0 0.00 0.00 0.00 91 1014.2
20260510051016 57 331 10.0 17.0 0.00 0.00 0.00 91 1014.2
20260510050515 57 331 10.0 17.0 0.00 0.00 0.00 91 1014.1
20260510050017 57 336 8.0 16.0 0.00 0.00 0.00 90 1014.2
20260510045516 57 350 11.0 14.0 0.00 0.00 0.00 90 1014.1
20260510045016 57 348 7.0 14.0 0.00 0.00 0.00 90 1014.0
20260510044515 57 340 5.0 15.0 0.00 0.00 0.00 91 1013.9
20260510044016 57 345 8.0 15.0 0.00 0.00 0.00 91 1013.8
20260510043515 57 343 6.0 15.0 0.00 0.00 0.00 91 1013.8
20260510043016 57 340 9.0 16.0 0.00 0.00 0.00 91 1013.7
20260510042516 57 337 7.0 16.0 0.00 0.00 0.00 91 1013.7
20260510042016 57 351 9.0 16.0 0.00 0.00 0.00 91 1013.7
20260510041516 57 343 10.0 15.0 0.00 0.00 0.00 91 1013.6
20260510041017 57 355 9.0 16.0 0.00 0.00 0.00 91 1013.4
20260510040515 57 341 5.0 16.0 0.00 0.00 0.00 91 1013.5
20260510040015 57 350 8.0 16.0 0.00 0.00 0.00 91 1013.4
20260510035516 57 345 9.0 16.0 0.00 0.00 0.00 91 1013.4
20260510034515 57 350 12.0 16.0 0.00 0.00 0.00 91 1013.2
20260510034015 57 340 11.0 15.0 0.00 0.00 0.00 90 1013.1
20260510033515 57 347 10.0 15.0 0.00 0.00 0.00 90 1013.0
20260510033016 57 316 8.0 18.0 0.00 0.00 0.00 90 1013.0
20260510032515 57 336 11.0 18.0 0.00 0.00 0.00 89 1012.9
20260510032015 58 344 9.0 18.0 0.00 0.00 0.00 89 1012.8
20260510031516 58 350 10.0 19.0 0.00 0.00 0.00 89 1012.8
20260510031015 58 336 13.0 19.0 0.00 0.00 0.00 88 1012.7
20260510030515 58 331 10.0 19.0 0.00 0.00 0.00 88 1012.7
20260510030016 58 338 9.0 18.0 0.00 0.00 0.00 87 1012.6
20260510025516 58 333 11.0 17.0 0.00 0.00 0.00 87 1012.5
20260510025016 59 331 11.0 19.0 0.00 0.00 0.00 86 1012.4
20260510024516 59 347 8.0 19.0 0.00 0.00 0.00 86 1012.4
20260510024016 59 340 10.0 19.0 0.00 0.00 0.00 86 1012.4
20260510023515 59 337 9.0 21.0 0.00 0.00 0.00 86 1012.5
20260510023017 59 341 11.0 21.0 0.00 0.00 0.00 85 1012.5
20260510022515 59 338 13.0 21.0 0.00 0.00 0.00 85 1012.4
20260510022015 60 341 12.0 21.0 0.00 0.00 0.00 85 1012.5
20260510021515 60 336 14.0 21.0 0.00 0.00 0.00 84 1012.6
20260510021015 60 330 15.0 21.0 0.00 0.00 0.00 84 1012.6
20260510020515 60 336 12.0 18.0 0.00 0.00 0.00 83 1012.6
20260510020015 61 341 11.0 22.0 0.00 0.00 0.00 82 1012.6
20260510015515 61 331 13.0 22.0 0.00 0.00 0.00 82 1012.5
20260510015015 61 352 13.0 22.0 0.00 0.00 0.00 81 1012.5
20260510014515 61 348 12.0 19.0 0.00 0.00 0.00 81 1012.6
20260510014015 61 338 11.0 21.0 0.00 0.00 0.00 81 1012.6
20260510013517 61 344 12.0 21.0 0.00 0.00 0.00 80 1012.6
20260510013016 61 341 13.0 21.0 0.00 0.00 0.00 80 1012.6
20260510012015 62 345 11.0 23.0 0.00 0.00 0.00 78 1012.6
20260510011515 62 331 13.0 23.0 0.00 0.00 0.00 77 1012.6
20260510011017 63 343 14.0 19.0 0.00 0.00 0.00 76 1012.6
20260510010515 63 345 15.0 21.0 0.00 0.00 0.00 75 1012.6
20260510010016 63 341 14.0 21.0 0.00 0.00 0.00 75 1012.6
20260510005516 63 343 11.0 21.0 0.00 0.00 0.00 75 1012.7
20260510005016 63 337 11.0 25.0 0.00 0.00 0.00 75 1012.7
20260510004516 63 329 13.0 25.0 0.00 0.00 0.00 74 1012.6
20260510004015 64 352 16.0 25.0 0.00 0.00 0.00 73 1012.6
20260510003515 64 333 13.0 21.0 0.00 0.00 0.00 72 1012.7
20260510003015 64 343 11.0 22.0 0.00 0.00 0.00 71 1012.7
20260510002516 65 337 12.0 22.0 0.00 0.00 0.00 70 1012.7
20260510002016 65 333 12.0 22.0 0.00 0.00 0.00 69 1012.7
20260510001515 65 345 11.0 22.0 0.00 0.00 0.00 69 1012.6
20260510001015 65 336 13.0 22.0 0.00 0.00 0.00 68 1012.7
20260510000515 65 0 14.0 22.0 0.00 0.00 0.00 68 1012.7
20260510000015 65 334 13.0 25.0 0.00 0.00 0.00 68 1012.6
20260509235516 65 330 12.0 25.0 0.00 0.00 0.00 69 1012.6
20260509235015 65 343 15.0 25.0 0.00 0.00 0.00 70 1012.7
20260509234515 65 334 13.0 22.0 0.00 0.00 0.00 71 1012.7
20260509234015 65 336 15.0 22.0 0.00 0.00 0.00 71 1012.7